📊 Raw Sensor Data

Showing records 36951 to 36975 of 84,905 total

ID Distance (ft) Battery V Battery A Int Temp (°F) Int Humid (%) Ext Temp (°F) Solar V RSSI SNR Time Stamp
47967 15.7 3.94 5 89 43 85 5.10 -71 8 08/01/2025 01:00 PM
47966 15.7 4.07 5 88 43 83 5.10 -71 7 08/01/2025 12:45 PM
47965 15.7 3.94 5 87 42 80 5.10 -69 8 08/01/2025 12:30 PM
47964 15.7 3.94 5 86 42 81 5.10 -68 7 08/01/2025 12:15 PM
47963 15.7 4.09 5 85 43 86 5.10 -69 7 08/01/2025 12:00 PM
47962 15.7 4.07 6 83 43 84 5.10 -70 7 08/01/2025 11:45 AM
47961 15.7 3.94 6 82 42 83 5.10 -69 8 08/01/2025 11:30 AM
47960 15.7 3.93 0 81 42 82 5.10 -69 8 08/01/2025 11:15 AM
47959 15.7 3.93 6 79 43 81 5.10 -70 8 08/01/2025 11:00 AM
47958 15.7 3.93 6 77 43 76 5.10 -69 8 08/01/2025 10:45 AM
47957 15.7 3.93 0 76 43 77 5.10 -68 8 08/01/2025 10:30 AM
47956 15.7 3.93 6 75 43 75 5.10 -68 7 08/01/2025 10:15 AM
47955 15.7 3.93 0 74 43 76 5.10 -68 7 08/01/2025 10:00 AM
47954 15.7 4.10 6 73 43 72 5.10 -69 8 08/01/2025 09:45 AM
47953 15.7 3.93 0 72 43 77 5.10 -71 8 08/01/2025 09:30 AM
47952 15.7 3.93 6 70 44 72 5.10 -69 8 08/01/2025 09:15 AM
47951 15.7 4.11 6 69 44 70 5.10 -69 7 08/01/2025 09:00 AM
47950 15.6 4.08 0 68 44 73 5.10 -69 8 08/01/2025 08:45 AM
47949 15.7 3.93 6 66 43 71 5.10 -69 8 08/01/2025 08:15 AM
47948 15.6 3.97 6 65 43 71 5.10 -70 8 08/01/2025 08:00 AM
47947 15.6 4.02 44 63 43 70 4.50 -70 8 08/01/2025 07:45 AM
47946 15.6 3.96 10 61 43 70 4.50 -68 8 08/01/2025 07:30 AM
47945 15.5 3.97 8 59 43 67 4.50 -69 8 08/01/2025 07:15 AM
47944 15.5 3.89 5 58 43 65 4.60 -69 8 08/01/2025 07:00 AM
47943 15.4 3.93 0 56 43 62 4.50 -69 7 08/01/2025 06:45 AM